This is the latest recevied weather packets stored in our database for station/object W0AKY-13. If no packets are shown the sender has not sent any weather packets the latest 10 day(s).
| Time | Temp. | Humidity | Pressure | Rain* | Wind** | Luminosity | Snow |
|---|---|---|---|---|---|---|---|
| 1777963634 | 10° C | 75% | 1011 hPa | 0 mm | - | 0 W/m² | - |
| 1777963332 | 10° C | 75% | 1010.8 hPa | 0 mm | - | 0 W/m² | - |
| 1777963029 | 9.44° C | 74% | 1010.9 hPa | 0 mm | - | 0 W/m² | - |
| 1777962725 | 10° C | 73% | 1010.8 hPa | 0 mm | - | 0 W/m² | - |
| 1777962421 | 10° C | 72% | 1010.8 hPa | 0 mm | - | 0 W/m² | - |
| 1777962119 | 10° C | 73% | 1010.6 hPa | 0 mm | - | 0 W/m² | - |
| 1777961816 | 10° C | 70% | 1011.1 hPa | 0 mm | - | 0 W/m² | - |
| 1777961514 | 10° C | 71% | 1011.2 hPa | 0 mm | - | 0 W/m² | - |
| 1777961211 | 10.56° C | 68% | 1011.5 hPa | 0 mm | - | 0 W/m² | - |
| 1777960908 | 11.67° C | 59% | 1012.1 hPa | 0 mm | - | 0 W/m² | - |
| 1777960603 | 12.78° C | 49% | 1012.1 hPa | 0 mm | - | 0 W/m² | - |
| 1777960300 | 12.78° C | 48% | 1012 hPa | 0 mm | - | 0 W/m² | - |
| 1777959997 | 12.78° C | 47% | 1011.7 hPa | 0 mm | - | 0 W/m² | - |
| 1777959695 | 12.78° C | 47% | 1011.6 hPa | 0 mm | - | 0 W/m² | - |
| 1777959392 | 12.78° C | 48% | 1010.8 hPa | 0 mm | - | 0 W/m² | - |
| 1777959088 | 12.78° C | 47% | 1010.6 hPa | 0 mm | - | 0 W/m² | - |
| 1777958786 | 12.78° C | 47% | 1010.6 hPa | 0 mm | - | 0 W/m² | - |
| 1777958483 | 12.78° C | 45% | 1010.4 hPa | 0 mm | - | 0 W/m² | - |
| 1777958180 | 13.33° C | 44% | 1010.1 hPa | 0 mm | - | 0 W/m² | - |
| 1777957878 | 13.33° C | 45% | 1010.1 hPa | 0 mm | - | 0 W/m² | - |
| 1777957575 | 13.33° C | 44% | 1010.2 hPa | 0 mm | - | 0 W/m² | - |
| 1777957274 | 13.33° C | 43% | 1010.3 hPa | 0 mm | - | 0 W/m² | - |
| 1777956969 | 13.33° C | 44% | 1010.6 hPa | 0 mm | - | 0 W/m² | - |
| 1777956667 | 13.33° C | 43% | 1010.5 hPa | 0 mm | - | 0 W/m² | - |
| 1777956364 | 13.89° C | 43% | 1010.5 hPa | 0 mm | - | 0 W/m² | - |
* Rain latest hour (hover to see other rain measurements)
** Current wind speed in m/s (hover to see current wind gust speed)